Weather History for KOKB - October, 2013

Change the Weather History Date:

Tuesday, October 29, 2013

  Actual Average Record
Temperature  
Mean Temperature 60 °F 60 °F  
Max Temperature 67 °F 73 °F 83 °F (2008)
Min Temperature 52 °F 48 °F 34 °F (2009)
Degree Days  
Heating Degree Days 5 5  
Month to date heating degree days 90 78  
Since 1 July heating degree days 98 93  
Cooling Degree Days 0 0  
Month to date cooling degree days 15 18  
Year to date cooling degree days 530 412  
Growing Degree Days 8 (Base 50)    
Moisture  
Dew Point 51 °F    
Average Humidity 78    
Maximum Humidity 100    
Minimum Humidity 56    
Precipitation  
Precipitation 0.07 in 0.03 in 0.83 in (2000)
Month to date precipitation 0.44 0.63  
Year to date precipitation 2.77 10.41  
Since 1 July precipitation 0.45 1.14  
Snow  
Snow 0.00 in - - ()
Month to date snowfall 0.0  
Year to date snowfall 0.0  
Since 1 July snowfall 0.0  
Snow Depth 0.00 in    
Sea Level Pressure  
Sea Level Pressure 29.96 in    
Wind  
Wind Speed 4 mph (WSW)    
Max Wind Speed 13 mph    
Max Gust Speed 17 mph    
Visibility 8 miles    
Events Rain    
T = Trace of Precipitation, MM = Missing Value Source: NWS Daily Summary

Daily Weather History Graph

Daily Weather History Graph

Search for Another Location

Airport or City:

Trip Planner

Search our weather history database for the weather conditions in past years. The results will help you decide how hot, cold, wet, or windy it might be!

Date:

Astronomy

Oct. 29, 2013 Rise Set
Actual Time 7:05 AM PDT 6:00 PM PDT
Civil Twilight 6:39 AM PDT 6:25 PM PDT
Nautical Twilight 6:10 AM PDT 6:54 PM PDT
Astronomical Twilight 5:41 AM PDT 7:23 PM PDT
Moon 2:14 AM PDT (10/29) 3:03 PM PDT (10/29)
Length of Visible Light 11h 45m
Length of Day
10h 54m
Waning Crescent, 24% of the Moon is Illuminated
Oct 29
Waning Crescent
Nov 3
New
Nov 9
First Quarter
Nov 17
Full
Nov 25
Last Quarter

Hourly Weather History & Observations

Time (PDT) Temp. Dew Point Humidity Pressure Visibility Wind Dir Wind Speed Gust Speed Precip Events Conditions
12:52 AM 57.0 °F 55.0 °F 93% 29.94 in 5.0 mi Calm Calm - 0.00 in Rain Light Rain
1:00 AM 57.2 °F 55.4 °F 94% 29.94 in 2.5 mi Calm Calm - 0.01 in Rain Light Rain
1:11 AM 57.2 °F 57.2 °F 100% 29.94 in 5.0 mi ENE 3.5 mph - 0.01 in Rain Light Rain
1:52 AM 57.0 °F - N/A% 29.94 in 7.0 mi Calm Calm - 0.03 in Rain Light Rain
2:22 AM 57.2 °F - N/A% 29.94 in 1.8 mi Calm Calm - 0.03 in Rain Rain
2:29 AM 57.2 °F - N/A% 29.94 in 3.0 mi Calm Calm - 0.04 in Rain Light Rain
2:52 AM 55.9 °F - N/A% 29.94 in 6.0 mi Calm Calm - 0.04 in Rain Light Rain
3:52 AM 55.9 °F - N/A% 29.93 in 9.0 mi ENE 4.6 mph - 0.01 in   Overcast
4:52 AM 55.0 °F - N/A% 29.93 in 10.0 mi ENE 3.5 mph - N/A   Overcast
5:52 AM 55.0 °F - N/A% 29.93 in 10.0 mi Calm Calm - N/A   Overcast
6:52 AM 53.1 °F - N/A% 29.94 in 10.0 mi Calm Calm - N/A   Scattered Clouds
7:52 AM 52.0 °F 52.0 °F 100% 29.96 in 5.0 mi North 3.5 mph - N/A   Clear
8:52 AM 57.9 °F 57.0 °F 97% 29.98 in 10.0 mi Calm Calm - N/A   Clear
9:52 AM 61.0 °F 52.0 °F 72% 29.98 in 10.0 mi Calm Calm - N/A   Clear
10:52 AM 63.0 °F 51.1 °F 65% 29.99 in 10.0 mi SSW 4.6 mph - N/A   Partly Cloudy
11:52 AM 66.0 °F 51.1 °F 59% 29.99 in 10.0 mi WSW 6.9 mph - N/A   Clear
12:52 PM 66.0 °F 50.0 °F 56% 29.97 in 10.0 mi WSW 4.6 mph - N/A   Clear
1:52 PM 66.0 °F 51.1 °F 59% 29.96 in 10.0 mi WSW 10.4 mph - N/A   Clear
2:52 PM 64.9 °F 51.1 °F 61% 29.95 in 10.0 mi SW 11.5 mph - N/A   Clear
3:52 PM 64.9 °F 50.0 °F 58% 29.95 in 10.0 mi WSW 11.5 mph - N/A   Clear
4:52 PM 63.0 °F 50.0 °F 63% 29.96 in 10.0 mi WSW 9.2 mph - N/A   Clear
5:52 PM 62.1 °F 50.0 °F 65% 29.95 in 10.0 mi West 3.5 mph - N/A   Clear
6:52 PM 59.0 °F 50.0 °F 72% 29.96 in 10.0 mi Variable 5.8 mph - N/A   Clear
7:52 PM 55.9 °F 50.0 °F 80% 29.97 in 10.0 mi Calm Calm - N/A   Clear
8:52 PM 52.0 °F 48.0 °F 86% 29.99 in 10.0 mi Calm Calm - N/A   Clear
9:52 PM 50.0 °F 46.9 °F 89% 30.00 in 10.0 mi Calm Calm - N/A   Clear
10:52 PM 50.0 °F 46.9 °F 89% 30.01 in 10.0 mi Calm Calm - N/A   Clear
11:52 PM 50.0 °F 46.9 °F 89% 30.01 in 9.0 mi Calm Calm - N/A   Partly Cloudy